Weather History for Chippewa, MI

Change the Weather History Date:

Monday, December 10, 2012

  Actual Average Record
Temperature  
Mean Temperature 16 °F -  
Max Temperature 23 °F 31 °F 44 °F (1990)
Min Temperature 6 °F 16 °F -5 °F (2013)
Degree Days  
Heating Degree Days 50    
Moisture  
Dew Point 15 °F    
Average Humidity 91    
Maximum Humidity 100    
Minimum Humidity 74    
Precipitation  
Precipitation 0.01 in - - ()
Sea Level Pressure  
Sea Level Pressure 29.73 in    
Wind  
Wind Speed 8 mph (North)    
Max Wind Speed 15 mph    
Max Gust Speed 24 mph    
Visibility 8 miles    
Events      
Averages and records for this station are not official NWS values.
T = Trace of Precipitation, MM = Missing Value Source: NWS Daily Summary

Daily Weather History Graph

Daily Weather History Graph

Search for Another Location

Airport:

Trip Planner

Search our weather history database for the weather conditions in past years. The results will help you decide how hot, cold, wet, or windy it might be!

Date:

Astronomy

Dec. 10, 2012 Rise Set
Actual Time 8:10 AM EST 4:51 PM EST
Civil Twilight 7:35 AM EST 5:26 PM EST
Nautical Twilight 6:57 AM EST 6:04 PM EST
Astronomical Twilight 6:21 AM EST 6:40 PM EST
Moon 4:46 AM EST (12/10) 2:45 PM EST (12/10)
Length of Visible Light 9h 50m
Length of Day
8h 41m
Waning Crescent, 10% of the Moon is Illuminated
Dec 10
Waning Crescent
Dec 13
New
Dec 20
First Quarter
Dec 28
Full
Jan 4
Last Quarter

Hourly Weather History & Observations

Time (EST) Temp. Windchill Dew Point Humidity Pressure Visibility Wind Dir Wind Speed Gust Speed Precip Events Conditions
12:15 AM 19.4 °F 9.5 °F 19.4 °F 100% 29.81 in 3.0 mi NE 8.1 mph - N/A   Overcast
12:35 AM 19.4 °F 7.9 °F 19.4 °F 100% 29.78 in 4.0 mi NE 10.4 mph - N/A   Overcast
12:55 AM 19.4 °F 7.9 °F 19.4 °F 100% 29.77 in 5.0 mi NE 10.4 mph - N/A   Overcast
1:15 AM 19.4 °F 6.6 °F 19.4 °F 100% 29.75 in 5.0 mi NE 12.7 mph - N/A   Overcast
1:35 AM 19.4 °F 7.9 °F 17.6 °F 93% 29.74 in 10.0 mi NE 10.4 mph - N/A   Overcast
1:55 AM 19.4 °F 9.5 °F 17.6 °F 93% 29.73 in 10.0 mi NE 8.1 mph - N/A   Overcast
2:15 AM 19.4 °F 10.4 °F 17.6 °F 93% 29.72 in 10.0 mi NE 6.9 mph - N/A   Overcast
2:35 AM 19.4 °F 8.6 °F 17.6 °F 93% 29.71 in 10.0 mi NE 9.2 mph - N/A   Overcast
2:55 AM 19.4 °F 9.5 °F 17.6 °F 93% 29.71 in 10.0 mi NE 8.1 mph - N/A   Overcast
3:15 AM 19.4 °F 8.6 °F 17.6 °F 93% 29.70 in 9.0 mi NE 9.2 mph - N/A   Overcast
3:35 AM 19.4 °F 8.6 °F 17.6 °F 93% 29.70 in 5.0 mi NE 9.2 mph - N/A   Overcast
3:55 AM 19.4 °F 10.4 °F 17.6 °F 93% 29.70 in 9.0 mi NNE 6.9 mph - N/A   Overcast
4:15 AM 19.4 °F 11.5 °F 17.6 °F 93% 29.68 in 3.0 mi NNE 5.8 mph - N/A   Overcast
4:35 AM 19.4 °F 14.3 °F 17.6 °F 93% 29.68 in 3.0 mi North 3.5 mph - N/A   Overcast
4:55 AM 17.6 °F 5.7 °F 17.6 °F 100% 29.66 in 3.0 mi NNE 10.4 mph - 0.01 in   Overcast
5:15 AM 17.6 °F 9.3 °F 17.6 °F 100% 29.66 in 4.0 mi North 5.8 mph - N/A   Overcast
5:35 AM 17.6 °F 8.2 °F 17.6 °F 100% 29.66 in 3.0 mi North 6.9 mph - N/A   Overcast
5:55 AM 17.6 °F 7.3 °F 15.8 °F 93% 29.66 in 7.0 mi North 8.1 mph - N/A   Overcast
6:15 AM 17.6 °F 6.4 °F 15.8 °F 93% 29.65 in 10.0 mi NNE 9.2 mph - N/A   Overcast
6:35 AM 17.6 °F 6.4 °F 15.8 °F 93% 29.65 in 10.0 mi NNE 9.2 mph - N/A   Overcast
6:55 AM 17.6 °F 5.7 °F 15.8 °F 93% 29.65 in 10.0 mi NNE 10.4 mph - N/A   Overcast
7:15 AM 15.8 °F 6.1 °F 15.8 °F 100% 29.65 in 10.0 mi NNE 6.9 mph - N/A   Overcast
7:35 AM 15.8 °F 6.1 °F 15.8 °F 100% 29.65 in 10.0 mi North 6.9 mph - N/A   Overcast
7:55 AM 15.8 °F 8.6 °F 15.8 °F 100% 29.65 in 5.0 mi North 4.6 mph - N/A   Mostly Cloudy
8:15 AM 15.8 °F 6.1 °F 14.0 °F 93% 29.66 in 6.0 mi North 6.9 mph - N/A   Mostly Cloudy
8:35 AM 15.8 °F 7.2 °F 12.2 °F 86% 29.66 in 6.0 mi North 5.8 mph - N/A   Partly Cloudy
8:55 AM 14.0 °F 5.1 °F 12.2 °F 93% 29.67 in 10.0 mi NNW 5.8 mph - N/A   Partly Cloudy
9:15 AM 14.0 °F 6.5 °F 12.2 °F 93% 29.68 in 5.0 mi North 4.6 mph - N/A   Scattered Clouds
9:35 AM 17.6 °F 9.3 °F 14.0 °F 86% 29.68 in 6.0 mi North 5.8 mph - N/A   Overcast
9:55 AM 17.6 °F 5.7 °F 14.0 °F 86% 29.69 in 10.0 mi North 10.4 mph - N/A   Mostly Cloudy
10:15 AM 17.6 °F 7.3 °F 14.0 °F 86% 29.68 in 10.0 mi NNW 8.1 mph - N/A   Mostly Cloudy
10:35 AM 17.6 °F 7.3 °F 14.0 °F 86% 29.69 in 1.8 mi NNW 8.1 mph - N/A   Overcast
11:15 AM 17.6 °F 7.3 °F 14.0 °F 86% 29.69 in 10.0 mi North 8.1 mph - N/A   Overcast
11:35 AM 17.6 °F 8.2 °F 14.0 °F 86% 29.69 in 10.0 mi North 6.9 mph - N/A   Mostly Cloudy
11:55 AM 19.4 °F 10.4 °F 15.8 °F 86% 29.69 in 9.0 mi NNW 6.9 mph - N/A   Scattered Clouds
12:15 PM 21.2 °F 9.5 °F 15.8 °F 80% 29.68 in 10.0 mi NNW 11.5 mph - N/A   Scattered Clouds
12:35 PM 21.2 °F 10.9 °F 15.8 °F 80% 29.68 in 6.0 mi NNW 9.2 mph - N/A   Mostly Cloudy
12:55 PM 21.2 °F 10.1 °F 17.6 °F 86% 29.68 in 8.0 mi NNW 10.4 mph - N/A   Overcast
1:15 PM 21.2 °F 10.1 °F 17.6 °F 86% 29.68 in 10.0 mi NNW 10.4 mph - N/A   Mostly Cloudy
1:35 PM 23.0 °F 11.7 °F 17.6 °F 80% 29.68 in 5.0 mi NNW 11.5 mph - N/A   Scattered Clouds
1:55 PM 21.2 °F 10.9 °F 17.6 °F 86% 29.69 in 10.0 mi NNW 9.2 mph - N/A   Mostly Cloudy
2:15 PM 21.2 °F 7.8 °F 17.6 °F 86% 29.70 in 10.0 mi NNW 15.0 mph 24.2 mph N/A   Mostly Cloudy
2:35 PM 21.2 °F 8.9 °F 17.6 °F 86% 29.70 in 10.0 mi NNW 12.7 mph - N/A   Partly Cloudy
2:55 PM 23.0 °F 13.1 °F 15.8 °F 74% 29.71 in 10.0 mi NNW 9.2 mph 16.1 mph N/A   Clear
3:15 PM 21.2 °F 10.9 °F 17.6 °F 86% 29.72 in 10.0 mi NNW 9.2 mph 17.3 mph N/A   Scattered Clouds
3:35 PM 23.0 °F 13.9 °F 17.6 °F 80% 29.73 in 10.0 mi North 8.1 mph - N/A   Mostly Cloudy
3:55 PM 21.2 °F 11.7 °F 17.6 °F 86% 29.73 in 10.0 mi NNW 8.1 mph - N/A   Scattered Clouds
4:15 PM 19.4 °F 9.5 °F 17.6 °F 93% 29.73 in 10.0 mi NW 8.1 mph - N/A   Scattered Clouds
4:35 PM 19.4 °F 10.4 °F 17.6 °F 93% 29.74 in 10.0 mi NW 6.9 mph - N/A   Partly Cloudy
4:55 PM 19.4 °F 10.4 °F 17.6 °F 93% 29.74 in 10.0 mi NW 6.9 mph - N/A   Scattered Clouds
5:15 PM 19.4 °F 12.8 °F 15.8 °F 86% 29.75 in 10.0 mi NW 4.6 mph - N/A   Scattered Clouds
5:35 PM 17.6 °F 12.3 °F 15.8 °F 93% 29.76 in 10.0 mi NW 3.5 mph - N/A   Scattered Clouds
5:55 PM 17.6 °F 9.3 °F 15.8 °F 93% 29.76 in 10.0 mi NNW 5.8 mph - N/A   Partly Cloudy
6:15 PM 17.6 °F 12.3 °F 15.8 °F 93% 29.77 in 10.0 mi NNW 3.5 mph - N/A   Clear
6:35 PM 15.8 °F 10.2 °F 15.8 °F 100% 29.78 in 10.0 mi North 3.5 mph - N/A   Clear
6:55 PM 15.8 °F 8.6 °F 14.0 °F 93% 29.79 in 10.0 mi North 4.6 mph - N/A   Clear
7:15 PM 17.6 °F 8.2 °F 14.0 °F 86% 29.79 in 10.0 mi North 6.9 mph - N/A   Clear
7:35 PM 15.8 °F 8.6 °F 12.2 °F 86% 29.80 in 10.0 mi North 4.6 mph - N/A   Clear
7:55 PM 15.8 °F 8.6 °F 12.2 °F 86% 29.81 in 10.0 mi North 4.6 mph - N/A   Clear
8:15 PM 15.8 °F 10.2 °F 12.2 °F 86% 29.82 in 10.0 mi North 3.5 mph - N/A   Clear
8:35 PM 14.0 °F 8.2 °F 10.4 °F 86% 29.83 in 10.0 mi NE 3.5 mph - N/A   Clear
8:55 PM 12.2 °F 4.3 °F 12.2 °F 100% 29.83 in 10.0 mi NE 4.6 mph - N/A   Clear
9:15 PM 12.2 °F 4.3 °F 12.2 °F 100% 29.84 in 10.0 mi ENE 4.6 mph - N/A   Clear
9:35 PM 12.2 °F 4.3 °F 10.4 °F 92% 29.84 in 10.0 mi NE 4.6 mph - N/A   Clear
9:55 PM 10.4 °F 4.0 °F 8.6 °F 92% 29.85 in 10.0 mi ENE 3.5 mph - N/A   Clear
10:15 PM 10.4 °F 2.2 °F 10.4 °F 100% 29.85 in 10.0 mi NE 4.6 mph - N/A   Clear
10:35 PM 10.4 °F - 8.6 °F 92% 29.86 in 10.0 mi Calm Calm - N/A   Clear
10:55 PM 8.6 °F - 8.6 °F 100% 29.87 in 10.0 mi Calm Calm - N/A   Scattered Clouds
11:15 PM 8.6 °F - 6.8 °F 92% 29.88 in 10.0 mi Calm Calm - N/A   Overcast
11:35 PM 8.6 °F 0.1 °F 6.8 °F 92% 29.87 in 10.0 mi East 4.6 mph - N/A   Mostly Cloudy
11:55 PM 6.8 °F -0.1 °F 6.8 °F 100% 29.87 in 10.0 mi ENE 3.5 mph - N/A   Partly Cloudy